Simultaneous Nadir Overpasses (SNOs) Predictions

Prediction of SNOs between GOES-16 and METOP-B Satellite Orbit:

Table of predicted SNOs for the next 14.0 days since TLE Epoch: 10/5/2019
Index Date Time (GOES-16) GOES-16 Lat,Lon METOP-B Lat,Lon Distance(km) Time Diff (sec)
1 10/06/2019 02:35:13 0.02, -75.20 -0.18, -76.07 99.59 80
2 10/07/2019 02:11:53 0.01, -75.20 0.95, -71.08 470.18 80
3 10/08/2019 14:33:25 -0.01, -75.22 0.07, -75.64 47.48 80
4 10/11/2019 02:29:04 0.01, -75.24 0.01, -75.24 0.69 80
5 10/13/2019 14:27:16 -0.01, -75.29 -0.12, -74.81 54.56 80
6 10/15/2019 02:48:56 0.01, -75.31 -0.93, -79.40 466.89 80
7 10/16/2019 02:25:36 0.02, -75.32 0.20, -74.41 104.13 80
8 10/17/2019 14:44:28 -0.02, -75.36 0.76, -78.98 412.21 80
9 10/18/2019 14:26:28 -0.02, -75.37 -0.30, -73.97 159.02 80




NCC Satellite Simultaneous Nadir Overpasses (SNOs) Prediction Service
